星链-36653(STARLINK-36653)

导读 | 豆包AI

STARLINK-36653是美国SpaceX公司星链(Starlink)项目的第二代低轨通信卫星,于2026年2月16日发射入轨,属于星链第二代星座部署的组成部分。作为低轨宽带卫星,它配备先进相控阵天线与激光星间链路技术,可实现卫星间高速直接通信,降低对地面基站依赖,助力星链扩展全球高速互联网覆盖,支持更高带宽与更低时延的网络服务。

基本信息
目录编号:
67842
目录名称:
STARLINK-36653
国际标识:
2026-033X
轨道中心:
EARTH
卫星名称:
星链-36653
卫星全名:
星链-36653(STARLINK-36653)
卫星状态:
在轨 (已飞行98 天)
发射日期:
2026-02-16 UTC
国别 :
美国 (US)
星等 :
--
轨道信息
数据来源 国际轨道数据
星历时间: 2026-05-25T12:20:37+0800
8小时前
查看轨道信息
半长轴: 6861.161km
偏心率: 0.0001019
轨道倾角: 43.002°
近地点辐角 279.320°
升交点赤经 194.958°
平近点角 80.754°
近地点: 482.324km
远地点: 483.724km
周期: 94.266分钟
每日圈数: 15.275887
详细信息
固有亮度:
5
最大亮度:
2.5
卫星平台:
Starlink V1.0
覆盖范围:
全球
运营商:
太空探索技术公司
运营商所在国:
美国
制造商(研发单位):
太空探索技术公司
制造商所在国:
美国
使用方式:
暂无
卫星简介
Starlink 计划是 SpaceX 推出的全球卫星互联网项目,通过发射低轨道卫星,为全球尤其是偏远地区提供高速、低延迟的互联网服务。自 2019 年起,Starlink 已部署数千颗卫星,旨在缩小全球数字鸿沟,推动互联网普及。该项目还为军事、航空等行业提供通信支持,带来广泛经济效益。
2D轨道图
3D轨道图
轨道高度分析图
轨道倾角分析图
轨道综合分析图
查看轨道综合分析图